Theta_e
306 307 308 309 309 309 308 308 310 311 312 313 313 312 312 313 311 303 300 301 297 292 292 293 294 291 292 291 288 288 286 285 282 281 281 281 280 281 279 282 279 279 276 275 277 275 274 288 286 281 286 286 289 289
305 305 306 307 308 308 307 307 308 309 309 310 310 311 311 312 312 307 298 300 300 294 293 295 295 297 296 295 292 290 289 288 288 283 284 285 281 280 280 277 283 278 285 283 281 282 287 290 288 290 290 289 287 287
302 303 304 304 305 306 306 306 307 307 308 309 309 310 311 312 313 309 302 297 296 292 293 292 293 297 297 297 296 289 290 292 289 293 290 285 281 284 278 279 281 284 286 282 283 287 288 289 291 292 291 291 292 291
301 302 302 302 303 304 305 306 306 305 305 305 306 307 309 309 310 311 301 298 299 293 287 290 295 291 296 297 296 295 294 291 291 290 287 284 282 286 281 284 283 286 285 283 282 287 288 290 290 291 291 292 291 292
301 301 301 301 302 303 304 305 305 305 305 304 305 306 307 308 309 310 310 303 303 297 289 289 294 296 294 295 294 294 292 290 288 285 284 283 286 286 286 285 284 287 287 284 284 290 289 291 291 292 290 290 291 290
301 301 301 301 301 301 302 303 304 304 305 305 306 306 306 306 307 303 300 307 302 302 292 286 294 291 292 292 292 291 291 290 289 287 286 286 289 287 281 279 287 291 292 292 289 293 292 293 294 293 291 291 291 291
300 301 301 300 301 301 301 303 303 303 304 304 304 305 304 305 303 297 295 300 302 302 289 285 285 287 290 289 290 290 291 289 288 287 286 285 284 289 281 280 287 289 292 292 294 293 290 291 291 292 292 292 293 291
300 300 300 300 300 300 301 302 302 302 303 303 303 303 303 304 303 297 302 305 303 296 292 284 285 284 288 284 284 289 286 287 287 287 287 285 286 284 280 286 290 292 293 293 294 296 294 294 294 292 293 291 290 290
299 299 300 300 300 300 300 300 301 302 302 302 302 302 300 299 294 297 303 303 302 294 283 284 284 283 287 286 285 285 286 281 286 283 284 286 283 280 284 287 289 292 291 292 294 293 293 292 293 293 293 293 291 290
299 299 299 299 300 300 300 300 300 300 301 301 298 293 286 294 301 301 296 292 287 286 285 283 288 282 284 284 282 283 283 282 279 282 285 282 282 288 290 292 292 292 293 293 291 290 291 290 291 291 291 292 291 291
298 299 299 299 300 300 299 299 299 300 299 293 288 287 295 299 294 289 285 283 285 282 285 285 288 285 287 282 282 285 282 282 278 281 280 279 277 285 291 292 294 295 295 295 295 294 294 294 293 292 290 290 289 289
298 298 298 299 299 299 299 299 299 296 293 293 293 295 293 289 286 282 281 281 282 279 285 284 284 288 285 289 284 283 281 281 277 283 279 278 281 288 291 292 293 293 293 293 293 293 293 293 293 293 291 289 288 288
297 298 298 298 299 299 299 299 299 299 298 295 289 285 283 283 278 277 272 279 281 282 284 284 285 285 284 286 284 283 278 279 284 278 277 278 286 290 289 290 291 291 290 290 290 289 290 290 290 289 288 288 288 287
297 297 297 298 298 299 299 299 299 297 292 285 281 276 277 274 277 278 279 279 283 283 284 286 285 284 285 282 284 280 282 281 276 275 274 283 288 288 289 289 289 289 289 288 288 288 288 287 287 287 287 287 286 285
296 296 297 297 298 298 299 298 298 295 288 282 282 275 275 279 281 281 282 282 283 288 287 286 286 285 284 282 282 280 278 272 275 276 280 287 287 288 289 288 287 287 288 287 287 286 287 287 285 286 286 287 287 286
296 296 294 296 297 298 298 297 295 292 286 282 282 279 281 279 278 279 280 281 286 286 286 287 284 282 279 278 279 277 278 275 280 280 285 287 287 289 289 288 287 288 288 288 288 287 287 287 286 286 286 286 286 286
295 290 295 297 297 298 298 293 289 284 282 281 278 281 281 281 280 281 283 283 288 283 276 279 277 278 282 280 279 278 276 280 281 285 287 288 288 287 289 287 286 287 287 287 287 287 287 287 286 286 285 285 286 285
290 292 295 296 296 295 292 289 284 282 279 279 276 279 282 282 281 282 284 285 283 279 279 276 278 276 275 273 275 282 284 286 287 287 290 289 289 288 288 287 288 287 285 285 286 286 285 285 285 285 284 283 283 283
292 293 295 296 295 288 284 284 284 278 277 278 281 282 283 283 284 285 284 285 285 285 280 276 274 273 276 279 280 282 283 283 284 287 289 289 289 288 287 285 284 285 283 285 284 285 286 286 285 286 285 283 283 283
296 296 295 296 295 285 282 282 285 279 272 278 281 280 282 282 284 284 284 284 283 279 276 275 277 279 280 282 283 283 284 286 285 283 285 288 290 286 286 284 285 286 285 284 282 286 283 284 284 284 284 284 284 283
293 292 294 294 288 285 284 278 281 281 276 275 276 280 279 277 280 280 281 283 277 279 278 280 281 283 285 285 286 286 286 286 285 286 285 285 288 289 287 284 283 284 285 286 286 285 286 284 284 283 284 284 284 283
290 294 290 290 284 284 282 284 278 279 280 277 277 276 272 276 277 279 281 278 279 280 282 282 283 283 283 284 285 285 286 286 287 288 290 290 287 287 284 283 282 282 284 286 286 288 288 287 285 284 284 283 284 281
292 291 285 284 281 280 276 284 277 274 274 275 279 276 274 275 278 278 272 276 280 283 284 284 284 285 285 286 286 286 287 286 285 286 287 288 289 290 289 289 285 285 285 285 288 288 287 289 287 284 284 283 281 281
291 284 281 279 278 274 277 277 279 274 273 270 268 265 267 270 272 269 272 277 280 283 283 283 284 283 284 284 283 284 286 287 286 286 288 288 288 288 287 288 287 287 288 288 288 288 287 285 287 284 283 281 280 281
280 279 279 276 277 274 273 272 275 274 270 267 265 266 269 271 266 268 273 278 281 282 283 285 285 285 283 284 285 286 288 288 287 286 288 289 289 289 289 288 286 287 288 288 287 287 287 287 285 283 282 281 280 281
275 278 276 275 272 270 271 268 269 268 267 265 268 270 269 269 269 271 276 280 281 283 284 284 284 284 285 287 286 287 288 291 290 288 289 290 289 288 287 288 286 283 286 289 288 287 285 285 285 283 282 283 284 280
274 274 277 280 276 275 272 273 273 270 264 265 266 267 269 267 271 276 281 283 283 284 284 283 282 283 284 285 288 290 290 291 290 290 291 291 291 290 290 288 288 288 286 287 287 286 284 284 284 284 283 282 283 281
275 274 270 273 272 272 268 268 266 266 268 273 273 268 269 273 274 280 282 285 283 280 278 279 281 282 282 283 284 283 284 284 284 284 284 283 283 287 289 291 292 290 288 287 287 287 286 286 286 285 283 282 282 280
273 274 274 265 265 267 269 269 270 274 277 275 274 274 276 280 282 282 284 286 280 276 278 280 281 284 281 281 282 282 283 283 283 281 282 283 282 283 283 285 285 286 286 287 289 288 287 286 285 283 283 282 279 278
271 275 269 263 266 267 271 275 272 276 277 279 278 279 279 281 284 286 285 284 283 282 282 283 282 279 279 280 281 281 279 281 282 282 283 282 283 281 281 282 282 282 283 284 284 285 288 286 286 281 278 277 277 276
275 272 267 268 269 274 277 272 271 271 270 269 272 273 276 278 281 283 283 283 283 282 281 278 279 278 278 280 280 280 279 278 278 278 278 278 278 279 278 280 283 284 284 284 285 284 282 278 277 277 276 276 276 276
272 271 269 266 271 269 268 268 268 268 270 269 274 278 276 274 275 280 275 272 271 270 274 276 276 277 278 278 279 281 281 276 277 277 279 279 279 280 283 284 285 285 284 283 280 278 277 276 276 275 275 275 274 272
268 269 268 269 268 267 269 268 267 268 269 271 276 276 276 275 274 278 269 268 269 269 270 271 273 273 272 272 274 278 280 277 278 285 285 285 285 285 284 284 284 283 280 278 277 277 276 275 275 275 274 272 271 271
Wind_Speed
17 16 16 14 11 11 11 12 14 13 15 15 12 10 11 11 17 9 3 9 5 4 5 7 6 6 2 2 3 3 2 2 2 3 3 5 3 4 3 4 7 9 8 6 5 4 12 7 5 6 5 3 5 7
16 15 17 16 14 12 13 12 12 12 13 13 15 14 14 14 12 19 3 5 3 3 5 2 7 18 20 11 4 6 3 4 5 3 3 0 2 1 4 6 1 5 9 5 11 10 4 11 9 9 3 1 4 5
16 17 14 16 16 15 14 14 13 12 12 13 14 15 15 15 16 16 5 5 3 3 5 5 13 11 12 15 6 6 4 6 4 3 2 3 6 3 4 8 6 6 6 5 2 10 15 10 14 13 5 7 7 8
17 16 16 17 17 16 17 16 15 14 13 15 15 16 14 13 15 16 7 6 3 2 5 5 1 6 7 14 17 15 11 3 3 1 3 5 5 6 6 9 8 6 5 4 9 21 17 22 16 12 14 14 10 9
18 18 17 17 18 18 16 17 16 15 15 15 14 14 14 14 14 11 9 9 11 6 3 4 4 8 8 11 15 12 13 9 4 3 5 6 6 7 8 9 18 12 17 11 15 21 10 18 8 8 7 7 10 10
19 19 18 18 18 18 18 16 17 17 14 13 14 13 13 15 13 4 6 7 12 8 4 4 3 4 7 9 11 12 12 8 7 6 5 6 7 5 4 8 6 18 22 24 28 24 20 25 19 14 9 10 10 10
21 20 19 19 18 19 18 17 17 17 16 15 14 14 14 14 6 5 4 1 11 8 3 4 5 3 4 3 3 3 6 5 5 3 5 5 1 11 4 19 10 6 12 18 20 23 24 25 16 10 9 9 9 9
22 21 21 20 19 18 18 17 17 17 17 17 16 15 17 19 17 9 8 12 10 2 2 4 2 1 4 3 2 3 3 2 3 3 2 4 3 3 10 19 19 20 24 27 30 27 25 21 18 15 13 7 9 11
22 22 22 21 20 19 19 18 17 16 17 15 15 20 8 4 4 2 6 14 6 5 4 5 5 4 3 3 3 2 2 4 3 5 5 7 6 11 22 15 20 17 13 20 19 15 17 22 23 21 15 16 17 14
21 21 21 22 21 20 19 18 18 16 16 14 6 4 4 2 8 3 1 4 2 3 3 3 3 4 4 3 4 4 4 4 4 6 4 6 8 23 22 21 18 14 16 20 21 22 19 21 16 15 15 13 11 12
22 21 21 22 21 21 19 18 17 15 11 2 3 4 1 4 2 1 4 4 4 4 3 4 9 9 4 5 5 5 3 3 4 4 7 5 6 19 21 24 25 24 26 27 23 21 21 21 18 14 13 12 9 8
23 22 21 21 22 22 20 18 17 9 4 2 3 1 1 2 3 5 5 4 5 5 6 5 6 6 4 3 4 6 5 5 6 6 4 4 10 20 13 17 12 15 17 17 15 16 19 16 16 14 10 8 7 6
22 22 22 22 22 22 20 20 17 15 12 2 4 3 3 4 9 7 7 3 3 4 4 3 2 3 2 3 4 4 6 5 5 4 4 7 15 18 7 4 10 6 9 10 14 8 8 8 6 7 6 4 4 3
24 23 22 23 22 22 22 20 17 11 4 5 5 8 8 6 6 5 5 3 3 1 1 2 2 4 3 4 4 5 5 2 3 4 8 12 15 9 6 3 2 10 8 9 10 7 7 6 6 6 5 4 4 4
25 24 22 21 22 23 22 20 18 7 5 5 5 7 8 5 4 2 1 2 1 2 2 2 4 4 5 6 6 5 5 6 8 8 8 7 3 5 6 2 5 7 7 7 4 5 5 6 5 5 5 3 3 2
25 24 18 21 22 22 21 17 9 4 3 5 7 5 3 6 5 5 5 6 4 3 2 2 4 6 8 4 7 8 5 7 5 6 7 5 5 6 7 5 5 5 5 6 5 3 5 4 3 3 3 2 3 3
25 15 17 20 20 22 21 7 4 6 6 7 5 4 8 6 8 5 4 4 5 3 3 3 5 8 5 7 5 4 7 7 4 6 5 4 6 9 8 8 7 5 6 7 1 5 3 0 1 2 2 2 3 3
14 8 17 19 15 13 4 5 5 6 9 7 3 4 9 8 10 10 8 5 3 2 3 7 3 9 10 15 23 13 2 7 8 11 11 9 7 8 8 8 7 6 4 4 4 5 6 5 6 2 0 3 3 3
15 12 18 19 14 4 5 5 4 4 10 4 6 6 8 8 9 10 9 9 9 6 3 1 6 6 10 10 13 15 11 6 8 9 9 9 7 8 9 7 5 5 5 6 6 4 3 4 4 2 3 3 1 2
25 23 22 22 18 5 6 5 4 5 5 8 7 9 9 9 9 9 10 9 8 4 5 8 15 16 16 16 15 14 15 15 14 16 16 14 11 6 8 6 6 6 5 4 3 6 3 3 3 2 2 3 3 3
19 14 18 16 6 6 4 4 5 4 3 3 3 8 8 2 8 10 11 8 3 9 13 11 14 15 17 16 14 15 16 15 15 14 14 14 14 9 8 5 5 4 5 5 6 4 6 4 3 3 4 3 2 2
5 13 4 7 6 6 5 5 3 2 3 3 1 3 4 7 8 8 6 7 10 12 12 14 15 16 17 21 19 21 21 21 20 16 21 19 15 11 7 6 4 5 7 8 7 7 6 5 3 3 4 3 4 3
10 9 4 5 5 5 2 6 6 5 4 4 3 4 3 5 8 3 5 7 11 13 15 16 19 20 20 23 20 20 19 17 14 15 16 14 14 13 11 9 6 8 8 7 6 6 7 9 10 7 6 5 5 4
9 4 6 7 6 5 5 6 4 2 3 3 4 5 4 5 2 2 9 11 13 12 14 19 15 15 15 18 16 17 17 15 16 16 15 14 12 11 7 8 8 8 9 5 8 7 6 7 10 7 7 8 7 7
7 7 7 7 5 6 6 7 6 5 6 6 5 6 5 2 3 6 13 16 14 13 11 12 12 12 14 15 15 15 16 12 12 14 14 12 12 10 10 6 7 10 8 7 6 8 9 10 9 8 9 9 10 10
9 8 8 8 5 7 7 8 8 9 5 5 8 5 2 4 9 12 12 12 12 5 4 8 11 10 12 13 13 11 13 11 10 12 13 10 10 10 11 10 8 5 6 8 8 11 11 12 12 13 11 12 17 12
7 5 3 2 3 4 2 0 1 4 6 7 5 4 4 7 10 12 11 7 3 4 4 4 6 9 12 11 11 10 8 8 9 9 10 8 7 7 8 9 11 7 8 9 10 11 12 12 12 12 9 9 11 12
5 6 8 7 3 2 6 3 6 7 6 5 3 6 7 8 11 8 10 10 6 3 4 7 8 9 11 11 9 7 9 7 3 2 2 1 1 3 6 6 7 10 7 9 10 9 10 10 10 10 12 12 10 12
3 3 5 5 3 4 7 8 7 6 5 4 10 16 18 14 14 15 13 11 3 3 10 12 12 9 9 7 7 7 6 5 6 7 8 7 3 4 3 3 3 4 4 5 10 8 8 8 9 10 12 10 10 10
4 4 4 5 7 8 7 7 4 5 5 8 7 11 13 15 13 11 12 11 12 15 14 12 6 3 6 6 6 4 3 2 1 3 5 4 4 3 4 5 5 5 5 6 7 7 15 12 14 12 12 10 10 10
5 4 2 5 7 7 8 2 1 1 1 4 4 8 16 14 13 11 12 15 13 11 9 8 8 6 6 5 4 4 4 1 2 2 1 1 2 3 3 3 5 6 6 8 8 9 11 11 10 12 13 14 15 14
4 7 6 4 7 2 2 2 3 3 3 4 9 9 7 5 11 9 1 2 2 1 5 7 5 3 1 1 2 1 3 2 1 3 4 2 2 3 5 5 6 7 9 9 10 11 13 13 11 11 13 15 15 15
2 2 2 2 1 2 3 2 3 5 3 5 8 7 6 5 8 5 1 2 0 2 3 3 4 2 2 2 2 2 3 2 5 3 6 6 8 8 5 5 6 8 12 11 11 11 13 15 13 14 15 15 15 15
Wind_Direction
301 301 305 298 292 295 300 307 312 311 305 289 277 275 267 265 209 171 227 190 178 210 248 200 181 209 240 235 231 166 29 210 157 209 191 238 228 229 306 194 180 176 165 203 196 210 268 143 92 195 228 356 190 184
300 299 303 304 300 290 293 293 293 300 298 295 293 286 279 265 251 197 213 197 188 226 265 278 243 238 229 220 203 190 244 172 197 177 231 289 290 209 224 257 198 249 203 211 190 221 215 188 208 213 252 242 275 230
293 291 292 299 301 295 296 295 297 299 303 302 295 292 289 278 261 212 221 144 152 264 266 225 231 237 216 218 182 194 224 202 221 146 183 236 227 182 208 240 219 241 215 228 284 264 256 229 238 248 246 236 247 247
286 287 290 291 291 288 287 291 293 296 299 305 305 305 300 295 286 252 202 187 188 137 254 249 155 229 217 213 209 213 226 102 83 131 180 210 215 199 221 244 223 229 144 229 265 270 282 277 260 244 238 233 235 236
279 281 284 289 288 288 288 288 289 293 297 300 307 306 305 298 305 281 250 197 202 204 243 256 301 223 182 182 203 215 220 217 173 193 223 233 233 256 267 270 245 219 235 236 255 252 271 276 262 232 241 238 223 224
274 277 279 281 283 287 290 287 284 286 288 296 298 296 306 309 303 309 254 199 194 191 251 253 308 228 172 183 190 197 207 214 204 186 214 232 233 167 249 253 215 221 223 234 255 264 263 267 281 268 240 236 233 220
272 271 271 274 279 282 285 286 284 284 285 289 291 294 298 295 289 237 258 71 200 196 170 235 247 48 153 144 174 194 185 212 211 214 238 256 314 196 245 254 239 262 225 229 245 261 258 260 259 272 254 249 229 232
268 268 268 269 271 276 281 285 286 285 283 289 297 299 294 290 285 261 236 222 165 196 230 247 278 259 169 140 178 174 172 179 220 239 224 197 178 184 250 246 248 244 243 252 253 255 259 269 273 260 253 245 232 238
266 267 267 267 269 270 274 278 282 284 285 290 300 300 285 218 235 271 310 179 161 196 226 175 202 227 177 149 105 177 190 215 198 216 210 179 188 220 235 253 251 248 228 247 257 251 254 251 254 264 258 258 253 247
263 263 264 264 264 265 267 273 279 286 284 296 296 256 296 354 308 324 73 191 271 224 196 235 277 175 193 156 169 176 199 226 225 222 165 225 239 252 254 253 256 243 240 253 262 264 260 263 258 255 251 255 253 249
262 261 261 262 259 257 258 266 271 277 287 217 226 229 347 6 294 237 240 205 201 229 192 216 213 222 194 172 185 202 201 201 239 184 202 214 253 247 249 249 246 246 249 252 250 255 257 259 264 254 244 242 237 240
260 260 258 259 261 257 253 254 259 260 227 261 316 312 340 239 233 223 222 202 206 236 195 197 223 200 147 125 192 176 210 196 240 142 214 245 249 249 235 243 251 239 252 256 252 247 254 253 251 248 237 227 220 216
258 259 258 258 257 255 249 251 250 252 265 274 218 217 185 209 234 224 203 201 232 221 208 184 252 100 111 190 215 202 219 222 127 201 233 244 259 254 247 268 279 272 249 247 261 254 262 253 241 215 219 217 207 198
256 257 257 257 255 251 243 245 248 251 199 237 196 206 200 208 238 198 225 255 257 286 115 158 221 197 186 203 230 253 213 149 238 214 230 246 257 299 279 258 279 277 283 261 264 257 258 253 254 243 218 186 175 211
255 256 255 253 253 250 239 239 239 226 196 230 226 220 210 211 236 205 226 316 221 247 90 297 241 202 191 231 196 237 199 226 204 218 226 259 339 311 293 269 279 290 290 270 281 297 266 248 247 269 251 191 173 174
251 255 251 250 250 242 234 239 233 208 208 227 224 245 267 202 238 233 217 236 201 222 150 198 262 266 237 220 201 199 186 216 229 220 261 329 314 313 312 307 290 280 278 261 99 342 309 296 257 227 134 113 129 150
249 246 246 244 245 234 229 217 185 186 227 224 212 198 239 262 244 235 237 223 192 204 209 210 267 249 301 245 231 209 219 258 287 295 293 302 301 303 306 302 292 277 260 263 314 143 159 65 184 185 110 198 142 148
238 235 234 233 231 232 195 185 178 211 223 222 194 201 213 237 238 249 249 246 249 232 231 240 238 247 250 283 292 280 337 295 297 294 289 281 285 291 288 286 295 280 246 260 257 170 140 174 218 176 222 137 137 132
234 230 234 232 218 192 157 193 181 238 219 206 219 232 237 242 233 242 246 243 239 223 186 221 237 229 242 244 251 272 290 276 273 282 287 277 268 274 278 287 261 242 215 192 179 224 166 178 258 179 171 147 104 114
239 235 234 225 219 193 171 198 188 217 218 231 227 236 228 231 236 239 246 242 239 219 227 237 242 245 252 257 257 262 264 269 277 286 285 284 287 280 269 246 247 235 232 222 228 162 129 124 238 162 147 168 151 186
236 231 237 223 213 188 176 196 198 216 216 202 223 210 228 209 235 237 241 236 217 230 243 241 250 254 252 253 255 258 259 258 259 256 263 270 273 262 259 234 226 214 207 212 223 188 169 190 204 173 185 178 184 167
213 208 185 192 218 155 202 192 200 166 185 217 141 229 211 221 241 242 234 219 231 238 238 246 246 249 253 251 250 249 252 252 253 259 263 265 268 264 251 225 182 222 222 220 208 195 179 188 182 157 162 168 163 137
176 176 199 193 171 199 249 154 180 187 210 204 193 236 227 227 233 208 229 226 244 245 248 250 254 254 254 258 260 256 252 253 257 255 256 255 256 254 250 252 197 213 221 218 188 180 192 193 195 166 157 140 146 163
144 200 199 184 166 192 150 185 177 173 213 207 197 235 264 225 236 184 246 252 255 257 254 254 255 260 261 258 254 255 255 250 252 253 251 252 250 246 230 228 214 221 217 189 184 196 188 174 164 170 150 162 162 165
203 198 191 186 164 145 163 167 185 212 233 217 196 252 256 154 203 250 271 275 269 264 259 262 263 263 259 259 261 259 255 244 239 244 246 238 244 249 244 225 209 209 194 184 170 190 197 188 175 163 167 173 166 167
224 186 199 182 158 144 170 165 191 204 199 210 225 230 165 200 245 262 257 270 267 258 236 263 264 266 261 258 260 262 264 261 236 242 248 236 232 232 237 234 222 237 197 198 191 196 182 180 178 165 180 170 174 161
208 173 168 198 137 120 124 278 183 164 197 209 227 212 202 234 245 259 260 254 228 240 206 196 207 267 273 272 267 263 259 263 246 239 241 236 227 221 221 231 234 233 168 186 186 182 179 178 168 175 161 163 174 166
181 164 154 179 195 172 173 193 175 197 215 224 164 204 217 223 246 255 280 284 241 239 249 256 255 258 261 263 264 274 274 270 252 133 98 18 285 227 210 221 218 181 171 187 192 179 169 171 172 168 165 168 159 156
140 171 115 157 157 175 199 193 212 217 198 189 245 254 256 253 273 282 285 281 259 223 274 287 284 272 259 268 250 244 258 223 202 193 216 234 226 231 161 146 140 139 141 154 170 157 157 152 152 157 159 148 142 141
213 153 134 146 163 214 227 187 227 228 223 239 264 274 272 269 268 273 278 278 276 269 274 278 269 244 273 282 289 276 232 251 308 237 236 227 231 171 169 165 144 132 130 138 136 142 152 142 137 122 123 130 136 142
147 136 141 183 214 229 237 209 20 62 207 230 211 249 270 288 287 268 257 262 265 264 264 257 263 229 234 251 255 284 305 274 184 183 107 102 100 113 119 124 131 134 134 135 139 137 128 125 131 135 140 142 151 145
139 175 169 213 247 232 57 155 231 229 247 224 253 255 260 268 281 287 45 13 13 329 259 257 258 265 267 289 314 61 27 307 278 202 177 157 139 135 138 138 137 137 136 132 125 132 135 135 138 141 141 141 137 136
75 82 58 101 321 240 226 161 263 278 237 256 262 268 260 231 243 263 45 66 213 313 346 337 336 351 343 306 343 351 355 313 302 232 177 166 151 141 129 132 131 129 125 127 132 134 133 134 134 136 131 129 131 132